Moline, IL
on Thursday, May 23, 2013

Thursday
Previous Day Next Day
Daily Summary
 ActualAverageRecord
Temperature
Mean Temperature °F 64°F  
Max Temperature 68°F 75°F 93°F (1975)
Min Temperature 47°F 53°F 33°F (1963)
Degree Days
Heating Degree Days 7 4  
Month to date heating degree days 116 139  
Since 1 July heating degree days 6274 6162  
Cooling Degree Days 0 3  
Month to date cooling degree days 55 37  
Year to date cooling degree days 64 51  
Growing Degree Days8 (Base °F )  
Moisture
Dew Point 50°F   
Average Humidity 69    
Maximum Humidity 93    
Minimum Humidity 44    
Precipitation
Precipitation 0.07 in 0.14 in 2.92 in (1995)
Month to date precipitation 3.71 3.16  
Year to date precipitation 18.89 12.70  
Snow
Snow 0.00 in 0.00 in in ()
Month to date snowfall 0.0 0.0  
Since 1 July snowfall 34.5 31.6  
Snow Depth 0.00 in   
Wind
Wind Speed 8 mph   
Max Wind Speed 18 mph   
Max Gust Speed 26 mph   
Visibility 8 miles   
Events Rain   

Key: T is trace of precipitation, MM is missing value
Source: NWS Daily Summary
Time(CDT)TemperatureDew PointHumidity Pressure Visibility Wind DirectionWind SpeedGust SpeedPrecipitationEvents Conditions
12:52 AM 59.0°F 53.1°F 81% 29.78 in 10.0 miles West 15.0 mph - N/A   Overcast
1:37 AM 55.4°F 55.4°F 100% 29.79 in 3.0 miles West 6.9 mph - 0.01 in Rain Light Rain
1:47 AM 55.4°F 55.4°F 100% 29.79 in 7.0 miles West 9.2 mph - 0.01 in   Overcast
1:52 AM 55.9°F 55.0°F 97% 29.79 in 5.0 miles WSW 9.2 mph - 0.01 in Rain Light Rain
2:52 AM 55.9°F 54.0°F 93% 29.80 in 6.0 miles West 8.1 mph - 0.01 in   Overcast
3:52 AM 57.0°F 55.0°F 93% 29.80 in 4.0 miles West 8.1 mph - N/A   Overcast
4:52 AM 57.0°F 55.0°F 93% 29.82 in 5.0 miles West 6.9 mph - N/A   Overcast
5:52 AM 57.0°F 54.0°F 89% 29.86 in 10.0 miles North 8.1 mph - 0.00 in   Overcast
6:35 AM 55.4°F 51.8°F 88% 29.89 in 10.0 miles North 9.2 mph 18.4 mph 0.00 in Rain Light Rain
6:52 AM 55.0°F 52.0°F 89% 29.90 in 10.0 miles North 9.2 mph 18.4 mph 0.00 in   Overcast
7:14 AM 53.6°F 51.8°F 94% 29.92 in 1.8 miles NNE 11.5 mph 19.6 mph 0.01 in Rain Rain
7:16 AM 53.6°F 51.8°F 94% 29.92 in 2.0 miles North 11.5 mph 19.6 mph 0.02 in Rain Light Rain
7:23 AM 53.6°F 51.8°F 94% 29.93 in 2.0 miles North 10.4 mph - 0.02 in Rain Light Rain
7:32 AM 53.6°F 51.8°F 94% 29.93 in 1.5 miles NNE 9.2 mph 17.3 mph 0.03 in Rain Light Rain
7:42 AM 55.4°F 53.6°F 94% 29.94 in 2.5 miles North 10.4 mph - 0.04 in Rain Light Rain
7:52 AM 55.0°F 52.0°F 89% 29.95 in 2.0 miles North 9.2 mph - 0.04 in Rain Light Rain
8:05 AM 55.4°F 51.8°F 88% 29.96 in 8.0 miles North 8.1 mph 18.4 mph 0.01 in   Overcast
8:19 AM 55.4°F 51.8°F 88% 29.97 in 10.0 miles North 10.4 mph - 0.01 in   Overcast
8:52 AM 55.9°F 52.0°F 87% 30.00 in 10.0 miles North 9.2 mph - 0.01 in   Overcast
9:01 AM 55.4°F 51.8°F 88% 30.00 in 4.0 miles North 11.5 mph 20.7 mph 0.00 in Rain Light Rain
9:07 AM 55.4°F 51.8°F 88% 30.00 in 4.0 miles North 10.4 mph 20.7 mph 0.00 in Rain Light Rain
9:15 AM 55.4°F 51.8°F 88% 30.01 in 9.0 miles North 11.5 mph 19.6 mph 0.00 in   Overcast
9:32 AM 55.4°F 51.8°F 88% 30.02 in 5.0 miles NNE 12.7 mph 18.4 mph 0.00 in Rain Light Rain
9:52 AM 55.9°F 51.1°F 84% 30.03 in 10.0 miles NNE 10.4 mph 19.6 mph 0.00 in   Overcast
10:52 AM 59.0°F 50.0°F 72% 30.05 in 10.0 miles NNE 10.4 mph 19.6 mph N/A   Overcast
11:20 AM 60.8°F 50.0°F 68% 30.06 in 10.0 miles NE 16.1 mph 20.7 mph N/A   Overcast
11:28 AM 59.0°F 50.0°F 72% 30.07 in 10.0 miles North 10.4 mph - N/A   Overcast
11:52 AM 62.1°F 51.1°F 67% 30.08 in 10.0 miles North 8.1 mph - N/A   Overcast
11:59 AM 62.6°F 51.8°F 68% 30.08 in 10.0 miles North 10.4 mph - N/A   Overcast
12:00 PM 62.6°F 51.8°F 68% 30.08 in 10.0 miles North 10.4 mph - N/A   Overcast
12:52 PM 64.0°F 50.0°F 60% 30.09 in 10.0 miles NE 13.8 mph 17.3 mph N/A   Overcast
1:52 PM 63.0°F 48.9°F 60% 30.11 in 10.0 miles NNE 12.7 mph 19.6 mph N/A   Mostly Cloudy
2:52 PM 63.0°F 46.9°F 56% 30.12 in 10.0 miles NE 11.5 mph 18.4 mph N/A   Mostly Cloudy
3:52 PM 66.0°F 46.9°F 50% 30.14 in 10.0 miles NNE 8.1 mph - N/A   Mostly Cloudy
4:52 PM 66.0°F 44.1°F 45% 30.15 in 10.0 miles NNE 10.4 mph - N/A   Scattered Clouds
5:52 PM 66.9°F 45.0°F 45% 30.16 in 10.0 miles North 9.2 mph - N/A   Clear
6:52 PM 64.9°F 42.1°F 43% 30.17 in 10.0 miles NNE 11.5 mph - N/A   Clear
7:52 PM 63.0°F 42.1°F 46% 30.19 in 10.0 miles NNE 8.1 mph - N/A   Clear
8:52 PM 61.0°F 43.0°F 52% 30.21 in 10.0 miles Calm Calm - N/A   Clear
9:52 PM 55.0°F 45.0°F 69% 30.24 in 10.0 miles Calm Calm - N/A   Clear
10:52 PM 48.9°F 44.1°F 83% 30.26 in 10.0 miles East 4.6 mph - N/A   Clear
11:52 PM 46.9°F 43.0°F 86% 30.27 in 10.0 miles ESE 3.5 mph - N/A   Clear
Astronomy
Sunrise:05:35 AM (CDT) Moon Rise:06:54 PM (CDT)5/23
Sunset:08:22 PM (CDT) Moon Set:04:22 AM (CDT)5/23
Moon Phase
May. 23 May. 25 May. 31 Jun. 08 Jun. 16

Copyright © 2014 The Weather Underground, Inc.















  Today is Monday, Nov. 17, the 321st day of 2014. There are 44 days left in the year.

1864 -- 150 years ago: The ferry landing has been moved a little downstream because of the increase of sandbars above and opposite the old landing place.
1889 -- 125 years ago: Ben Eden purchased the Union Meat Market at 207 20th St.
1914 -- 100 years ago: Washington dispatches declared the bad effects of war upon trade had ended, a restoration of credit balance with Europe relieving the situation.
1939 -- 75 years ago: The maintenance foreman on the Iowa Illinois Memorial Bridge between Moline and Bettendorf lost his life when he slipped and fell into the Mississippi River.
1964 -- 50 years ago: The Black Hawk College Board of Education last night formally expressed appreciation for a proposed gift of 44 acres of land for a building site but could not take any other action until after a Nov. 24 stockholders meeting of the donor company.
1989 -- 25 years ago: A Rock Island County committee has approved a jail inmate phone service that could bring the county an additional $30,000 to $40,000 a year.